Location: Caltech
(34.1382°N, 118.1253°W)
Time: 10:12:07
(UTC-07:00)

Saudisat 1A - Visible Passes

Search period start: 01 October 2016 00:00
Search period end: 11 October 2016 00:00
Orbit: 564 x 629 km, 64.6° (Epoch: 30 September)

Date Brightness Start Highest point End Pass type
(mag) Time Alt. Az. Time Alt. Az. Time Alt. Az.
01 Oct 9.8 04:57:33 10° S 05:01:28 30° ESE 05:05:26 10° NE visible
02 Oct 8.5 05:08:51 23° S 05:11:29 60° ESE 05:15:58 10° NE visible
03 Oct 8.0 05:19:57 37° SW 05:21:37 70° WNW 05:26:09 10° NNE visible
04 Oct 10.8 03:54:08 16° E 03:54:08 16° E 03:55:51 10° ENE visible
04 Oct 8.7 05:30:50 33° W 05:31:50 37° NW 05:36:04 10° NNE visible
05 Oct 10.4 04:04:51 22° ENE 04:04:51 22° ENE 04:06:47 10° NE visible
05 Oct 9.4 05:41:34 21° WNW 05:42:10 21° NW 05:45:39 10° N visible
06 Oct 10.2 04:15:27 23° NE 04:15:27 23° NE 04:17:13 10° NNE visible
06 Oct 10.0 05:52:09 12° NW 05:52:37 13° NW 05:54:35 10° NNW visible
07 Oct 10.2 04:25:55 19° NNE 04:25:55 19° NNE 04:27:20 10° NNE visible
08 Oct 10.5 04:36:18 15° N 04:36:18 15° N 04:37:10 10° N visible
09 Oct 10.7 04:46:34 10° N 04:46:34 10° N 04:46:39 10° N visible
